This is the latest recevied weather packets stored in our database for station/object KB2AHZ. If no packets are shown the sender has not sent any weather packets the latest 10 day(s).
| Time | Temp. | Humidity | Pressure | Rain* | Wind** | Luminosity | Snow |
|---|---|---|---|---|---|---|---|
| 1778025412 | 23.89° C | 50% | 1013.2 hPa | 0 mm | - | 8 W/m² | - |
| 1778025110 | 23.89° C | 50% | 1013.2 hPa | 0 mm | - | 10 W/m² | - |
| 1778024806 | 24.44° C | 49% | 1013.3 hPa | 0 mm | - | 14 W/m² | - |
| 1778024503 | 24.44° C | 49% | 1013.1 hPa | 0 mm | - | 19 W/m² | - |
| 1778024200 | 24.44° C | 48% | 1013.1 hPa | 0 mm | - | 23 W/m² | - |
| 1778023897 | 25° C | 48% | 1013.3 hPa | 0 mm | - | 26 W/m² | - |
| 1778023595 | 25° C | 47% | 1013.4 hPa | 0 mm | - | 26 W/m² | - |
| 1778023292 | 25° C | 47% | 1013.2 hPa | 0 mm | - | 32 W/m² | - |
| 1778022989 | 25° C | 47% | 1013.1 hPa | 0 mm | - | 41 W/m² | - |
| 1778022688 | 25° C | 47% | 1013.2 hPa | 0 mm | - | 47 W/m² | - |
| 1778022386 | 25.56° C | 46% | 1013.1 hPa | 0 mm | - | 55 W/m² | - |
| 1778022081 | 25.56° C | 45% | 1013 hPa | 0 mm | - | 70 W/m² | - |
| 1778021778 | 25.56° C | 45% | 1013.1 hPa | 0 mm | - | 79 W/m² | - |
| 1778021474 | 25.56° C | 44% | 1013.2 hPa | 0 mm | - | 74 W/m² | - |
| 1778021171 | 25.56° C | 44% | 1013.4 hPa | 0 mm | - | 59 W/m² | - |
| 1778020869 | 25.56° C | 43% | 1013.3 hPa | 0 mm | - | 54 W/m² | - |
| 1778020566 | 26.11° C | 44% | 1013.2 hPa | 0 mm | - | 70 W/m² | - |
| 1778020262 | 26.11° C | 44% | 1013.4 hPa | 0 mm | - | 114 W/m² | - |
| 1778019958 | 26.11° C | 44% | 1013.2 hPa | 0 mm | - | 124 W/m² | - |
| 1778019654 | 26.11° C | 45% | 1013.2 hPa | 0 mm | - | 137 W/m² | - |
| 1778019352 | 25.56° C | 44% | 1013.3 hPa | 0 mm | - | 113 W/m² | - |
| 1778019048 | 26.11° C | 44% | 1013.5 hPa | 0 mm | - | 112 W/m² | - |
| 1778018745 | 26.11° C | 44% | 1013.3 hPa | 0 mm | - | 182 W/m² | - |
| 1778018443 | 26.11° C | 44% | 1013.4 hPa | 0 mm | - | 252 W/m² | - |
| 1778018141 | 26.11° C | 44% | 1013.2 hPa | 0 mm | - | 217 W/m² | - |
* Rain latest hour (hover to see other rain measurements)
** Current wind speed in m/s (hover to see current wind gust speed)